Simultaneous Nadir Overpasses (SNOs) Predictions

Prediction of SNOs between NOAA-20 and AQUA Satellite Orbit:

Table of predicted SNOs for the next 14.0 days since TLE Epoch: 12/23/2023
Index Date (NOAA-20) Time (NOAA-20) Lat,Lon (NOAA-20) SZA (NOAA-20 ) Date (AQUA) Time (AQUA) Lat,Lon (AQUA) SZA (AQUA ) Distance(km) Time Diff (sec)
1 12/25/2023 07:54:36 -81.01, 157.61 67.89 12/25/2023 07:54:52 -81.01, 157.79 67.93 3.11 16
2 12/25/2023 08:45:17 81.06, -33.76 111.92 12/25/2023 08:44:13 81.06, -33.91 111.98 2.62 64
3 12/27/2023 20:48:31 -81.00, -36.02 67.91 12/27/2023 20:49:37 -81.00, -36.07 67.95 0.91 66
4 12/27/2023 21:39:13 81.04, 132.22 111.96 12/27/2023 21:38:58 81.04, 132.22 111.97 0.03 15
5 12/30/2023 10:33:09 81.02, -61.86 111.96 12/30/2023 10:33:42 81.02, -61.78 111.92 1.29 33
6 12/30/2023 11:23:51 -81.07, 106.71 68.23 12/30/2023 11:23:04 -81.06, 106.55 68.18 2.84 47
7 01/02/2024 00:17:46 -81.05, -87.05 68.33 01/02/2024 00:17:46 -81.05, -87.22 68.31 2.96 0
8 01/04/2024 13:11:42 -81.01, 78.39 68.36 01/04/2024 13:12:27 -81.01, 78.52 68.41 2.25 45



Historial Predications of SNOs between NOAA-20 and AQUA
